Date,TemperatureHighF,TemperatureAvgF,TemperatureLowF,DewpointHighF,DewpointAvgF,DewpointLowF,HumidityHigh,HumidityAvg,HumidityLow,PressureMaxIn,PressureMinIn,WindSpeedMaxMPH,WindSpeedAvgMPH,GustSpeedMaxMPH,PrecipitationSumIn
2014-1-1,32,28,24,30,27,21,100,94,84,0.00,40.00,15,8,20,0.19
2014-1-2,40,30,21,26,21,17,89,71,52,0.00,40.00,20,13,31,0.01
2014-1-3,45,36,23,33,22,15,81,57,38,0.00,40.00,33,20,48,0.01
2014-1-4,23,14,6,19,9,-100,93,84,79,0.00,40.00,22,9,33,0.00
2014-1-5,6,-1,-6,2,-10,-17,83,64,46,0.00,40.00,26,11,41,0.00
2014-1-6,29,14,-2,9,-2,-11,64,51,40,0.00,40.00,20,15,29,0.00
2014-1-7,35,32,27,30,20,9,82,61,42,0.00,40.00,19,8,26,0.00
2014-1-8,42,31,25,25,20,15,78,62,48,0.00,40.00,11,7,17,0.00
2014-1-9,38,34,31,23,20,16,62,55,48,0.00,40.00,13,10,24,0.00
2014-1-10,43,36,29,23,19,13,56,49,44,0.00,40.00,17,14,34,0.00
2014-1-11,50,38,33,29,21,-100,76,51,41,0.00,40.00,33,12,50,0.00
2014-1-12,41,37,33,25,18,14,65,47,36,0.00,40.00,25,17,40,0.00
2014-1-13,51,40,27,29,23,15,99,54,31,0.00,40.00,35,22,54,0.00
2014-1-14,36,29,27,27,23,20,97,78,61,0.00,40.00,17,12,26,0.00
2014-1-15,54,42,26,25,19,16,78,42,26,0.00,40.00,25,19,43,0.00
2014-1-16,43,36,32,23,18,15,63,49,36,0.00,40.00,13,7,26,0.00
2014-1-17,48,39,29,23,19,15,63,45,33,0.00,40.00,19,14,29,0.00
2014-1-18,47,40,36,26,19,-100,52,44,38,0.00,40.00,24,14,31,0.00
2014-1-19,51,43,34,22,18,14,59,38,25,0.00,40.00,21,16,34,0.00
2014-1-20,44,35,29,20,18,15,64,48,38,0.00,40.00,16,10,24,0.00
2014-1-21,49,40,29,25,18,11,65,42,28,0.00,40.00,21,11,30,0.00
2014-1-22,37,26,16,27,21,14,94,83,54,0.00,40.00,15,8,20,0.00
2014-1-23,33,24,15,18,14,11,94,68,42,0.00,40.00,20,12,30,0.00
2014-1-24,50,42,33,27,20,12,53,41,33,0.00,40.00,25,16,39,0.00
2014-1-25,53,45,40,27,22,-100,53,43,30,0.00,40.00,20,16,29,0.00
2014-1-26,44,28,11,31,16,-3,89,60,44,0.00,40.00,28,14,39,0.00
2014-1-27,22,13,6,4,0,-6,78,57,39,0.00,40.00,14,7,17,0.00
2014-1-28,34,19,8,7,1,-4,67,47,25,0.00,40.00,17,11,24,0.00
2014-1-29,39,31,23,28,15,3,98,53,35,0.00,40.00,19,12,27,0.00
2014-1-30,23,12,5,23,8,1,98,85,77,0.00,40.00,19,9,26,0.00
2014-1-31,31,15,4,20,8,0,90,75,48,0.00,40.00,21,10,26,0.03
2014-2-1,15,11,7,10,3,-100,88,74,60,0.00,40.00,10,6,17,0.07
2014-2-2,24,14,8,9,3,-2,73,62,47,0.00,40.00,13,8,16,0.05
2014-2-3,13,7,-1,7,2,-6,89,79,71,0.00,40.00,21,14,28,0.00
2014-2-4,2,-3,-10,-5,-10,-17,78,73,67,0.00,40.00,15,8,19,0.00
2014-2-5,0,-10,-15,-10,-18,-23,72,67,60,0.00,40.00,10,5,12,0.00
2014-2-6,-2,-12,-19,-12,-21,-27,67,63,58,0.00,40.00,13,8,19,0.00
2014-2-7,17,3,-11,7,-6,-20,67,63,59,0.00,40.00,11,6,15,0.00
2014-2-8,10,5,-1,1,-2,-6,81,75,60,0.00,40.00,14,8,23,0.00
2014-2-9,11,2,-1,4,-4,-6,79,77,73,0.00,40.00,9,6,12,0.00
2014-2-10,26,15,2,19,9,-3,82,78,72,0.00,40.00,12,6,16,0.07
2014-2-11,42,32,20,30,20,13,87,62,41,0.00,40.00,24,13,41,0.02
2014-2-12,47,38,27,27,20,9,55,47,41,0.00,40.00,45,21,60,0.02
2014-2-13,47,41,36,35,23,19,69,48,39,0.00,40.00,21,12,41,0.00
2014-2-14,41,36,33,31,17,11,72,45,36,0.00,40.00,18,10,24,0.00
2014-2-15,47,39,34,31,21,-100,72,52,30,0.00,40.00,19,12,27,0.00
2014-2-16,51,40,33,33,24,11,94,55,37,0.00,40.00,28,16,41,0.05
2014-2-17,49,41,33,23,16,8,46,36,28,0.00,40.00,34,20,47,0.02
2014-2-18,44,39,33,26,17,9,68,43,27,0.00,40.00,27,15,42,0.00
2014-2-19,44,37,29,26,14,2,73,40,21,0.00,40.00,28,19,44,0.00
2014-2-20,35,30,25,23,12,5,75,47,28,0.00,40.00,17,13,35,0.00
2014-2-21,35,30,23,23,14,6,76,53,33,0.00,40.00,22,11,35,0.00
2014-2-22,23,17,13,20,12,-100,93,80,70,0.00,40.00,14,8,19,0.01
2014-2-23,16,12,9,10,8,5,88,83,74,0.00,40.00,15,10,19,0.01
2014-2-24,10,6,3,5,1,-2,85,81,78,0.00,40.00,17,10,20,0.00
2014-2-25,11,6,3,6,1,-2,82,80,77,0.00,40.00,10,6,13,0.00
2014-2-26,24,12,1,14,4,-4,80,71,60,0.00,40.00,18,12,24,0.01
2014-2-27,39,28,14,28,13,0,98,56,34,0.00,40.00,15,6,20,0.08
2014-2-28,27,8,-5,27,4,-11,98,84,76,0.00,40.00,21,16,29,0.04
2014-3-1,-5,-12,-17,-11,-20,-100,76,69,66,0.00,40.00,19,13,25,0.00
2014-3-2,-2,-11,-19,-9,-19,-27,74,69,65,0.00,40.00,8,4,10,0.00
2014-3-3,37,6,-6,35,2,-12,99,81,74,0.00,40.00,11,6,17,0.07
2014-3-4,47,39,17,32,25,14,92,59,44,0.00,40.00,15,10,23,0.01
2014-3-5,49,42,35,27,25,22,68,51,40,0.00,40.00,23,14,36,0.01
2014-3-6,51,43,22,39,30,21,98,63,45,0.00,40.00,19,13,35,0.05
2014-3-7,44,31,21,37,26,20,97,84,62,0.00,40.00,12,6,22,0.01
2014-3-8,54,44,34,31,25,-100,75,51,33,0.00,40.00,24,14,34,0.00
2014-3-9,61,54,48,34,28,23,46,37,31,0.00,40.00,26,18,42,0.00
2014-3-10,51,40,30,40,34,28,100,82,42,0.00,40.00,19,12,25,0.06
2014-3-11,41,34,28,34,28,16,100,82,38,0.00,40.00,17,10,22,0.13
2014-3-12,50,38,29,24,21,17,63,51,34,0.00,40.00,16,13,28,0.01
2014-3-13,53,42,34,26,23,19,62,47,26,0.00,40.00,21,14,35,0.00
2014-3-14,55,43,33,32,26,21,77,54,28,0.00,40.00,15,10,27,0.00
2014-3-15,46,40,34,33,24,-100,95,55,28,0.00,40.00,19,13,30,0.00
2014-3-16,56,47,36,25,21,18,57,37,24,0.00,40.00,24,15,38,0.00
2014-3-17,52,44,33,36,27,19,98,56,27,0.00,40.00,28,15,39,0.12
2014-3-18,40,34,30,32,26,15,100,73,43,0.00,40.00,11,7,22,0.07
2014-3-19,49,36,28,23,18,14,63,48,25,0.00,40.00,20,9,28,0.00
2014-3-20,43,39,32,27,13,-100,52,36,22,0.00,40.00,35,18,49,0.00
2014-3-21,32,24,16,22,18,12,95,76,49,0.00,40.00,20,13,29,0.00
2014-3-22,22,17,12,12,9,-100,87,73,60,0.00,40.00,17,10,24,0.00
2014-3-23,31,23,18,27,18,12,91,80,65,0.00,40.00,15,8,19,0.00
2014-3-24,24,22,20,18,16,10,87,76,63,0.00,40.00,13,9,17,0.03
2014-3-25,46,30,17,31,20,10,83,66,49,0.00,40.00,16,10,20,0.02
2014-3-26,46,41,35,36,29,19,78,62,40,0.00,40.00,16,9,22,0.00
2014-3-27,41,34,28,33,29,24,100,81,63,0.00,40.00,21,11,28,0.00
2014-3-28,52,36,24,31,24,15,100,68,26,0.00,40.00,22,9,29,0.01
2014-3-29,60,47,43,34,25,-100,66,45,24,0.00,40.00,25,18,35,0.01
2014-3-30,45,37,28,34,31,26,100,82,49,0.00,40.00,19,11,31,0.26
2014-3-31,28,24,20,28,23,19,100,96,94,0.00,40.00,17,10,26,0.32
2014-4-1,29,24,19,28,22,-100,99,95,94,0.00,40.00,15,6,17,0.01
2014-4-2,34,28,24,34,28,23,100,99,97,0.00,40.00,14,9,17,0.11
2014-4-3,45,34,28,33,29,23,100,85,52,0.00,40.00,12,9,19,0.11
2014-4-4,53,43,34,26,21,17,70,43,25,0.00,40.00,22,11,32,0.00
2014-4-5,53,44,38,35,27,-100,77,54,32,0.00,40.00,13,8,24,0.00
2014-4-6,51,44,38,32,28,24,64,53,39,0.00,40.00,25,14,43,0.02
2014-4-7,58,47,35,33,30,25,83,55,34,0.00,40.00,16,9,27,0.02
2014-4-8,71,55,39,34,28,24,62,39,18,0.00,40.00,22,12,36,0.00
2014-4-9,68,56,42,36,31,27,59,40,23,0.00,40.00,26,13,42,0.00
2014-4-10,62,50,41,29,22,11,61,36,14,0.00,40.00,20,12,32,0.00
2014-4-11,68,56,43,29,23,16,45,29,19,0.00,40.00,19,9,25,0.00
2014-4-12,56,40,27,33,27,-100,88,64,33,0.00,40.00,31,15,39,0.00
2014-4-13,36,29,23,22,15,8,88,58,37,0.00,40.00,15,10,22,0.00
2014-4-14,50,35,27,17,14,9,63,44,21,0.00,40.00,19,13,30,0.00
2014-4-15,57,45,37,36,23,13,80,45,24,0.00,40.00,26,15,36,0.05
2014-4-16,45,39,35,34,31,27,93,74,51,0.00,40.00,14,8,26,0.01
2014-4-17,63,47,33,38,30,23,94,59,24,0.00,40.00,15,8,26,0.00
2014-4-18,61,51,45,40,29,6,62,42,20,0.00,40.00,28,12,41,0.00
2014-4-19,63,51,39,26,15,-100,34,24,19,0.00,40.00,16,8,26,0.00
2014-4-20,64,56,49,30,20,8,43,26,13,0.00,40.00,23,14,32,0.00
2014-4-21,68,55,42,27,20,9,39,27,17,0.00,40.00,17,7,24,0.00
2014-4-22,72,59,49,42,33,25,52,37,22,0.00,40.00,18,10,26,0.00
2014-4-23,60,47,40,43,25,11,75,45,18,0.00,40.00,24,16,46,0.00
2014-4-24,58,49,40,34,24,20,63,39,23,0.00,40.00,17,10,33,0.00
2014-4-25,64,53,42,37,33,28,70,49,28,0.00,40.00,16,7,25,0.00
2014-4-26,61,53,47,47,41,33,87,64,43,0.00,40.00,14,9,24,0.05
2014-4-28,50,46,43,31,26,21,63,46,31,0.00,40.00,24,20,45,0.00
2014-4-29,50,43,38,36,29,22,64,57,49,0.00,40.00,23,15,58,0.01
2014-4-30,58,48,36,27,23,17,64,40,22,0.00,40.00,23,13,34,0.01
2014-5-1,71,56,41,37,27,17,47,34,21,0.00,40.00,6,5,12,0.00
2014-5-2,66,57,44,43,38,31,78,51,42,0.00,40.00,21,11,29,0.00
2014-5-3,44,40,38,41,36,-100,97,88,78,0.00,40.00,17,13,23,0.00
2014-5-4,58,47,39,43,39,36,96,77,51,0.00,40.00,14,8,23,0.00
2014-5-5,66,51,41,49,43,34,100,76,47,0.00,40.00,26,9,48,0.28
2014-5-6,49,45,39,46,44,38,100,96,85,0.00,40.00,21,10,27,0.60
2014-5-7,37,37,37,37,37,37,99,99,99,0.00,40.00,20,20,29,0.00
2014-5-13,58,52,46,35,30,26,63,44,30,0.00,40.00,19,10,28,0.02
2014-5-14,62,52,43,40,34,28,67,52,36,0.00,40.00,13,8,19,0.04
2014-5-15,69,57,47,46,40,34,75,54,32,0.00,40.00,20,9,37,0.02
2014-5-16,63,53,47,47,42,38,97,68,41,0.00,40.00,20,9,31,0.08
2014-5-17,64,54,46,47,42,-100,86,67,50,0.00,40.00,12,8,17,0.19
2014-5-18,65,54,48,54,49,43,100,84,58,0.00,40.00,21,8,38,0.43
2014-5-19,63,54,47,43,34,-100,77,52,33,0.00,40.00,16,11,27,0.03
2014-5-20,65,55,47,43,38,-100,71,54,41,0.00,40.00,13,8,18,0.00
2014-5-21,69,59,48,51,47,40,89,67,49,0.00,40.00,13,10,19,0.00
2014-5-22,78,64,53,56,50,-100,88,65,42,0.00,40.00,13,7,17,0.00
2014-5-23,80,68,58,54,49,38,67,50,34,0.00,40.00,19,10,25,0.00
2014-5-24,78,67,59,53,46,-100,72,49,34,0.00,40.00,20,10,29,0.00
2014-5-25,74,63,53,55,51,48,98,69,40,0.00,40.00,15,8,29,0.15
2014-5-26,81,69,57,58,51,46,83,56,29,0.00,40.00,29,10,50,0.02
2014-5-27,75,64,55,54,49,42,83,59,44,0.00,40.00,17,10,27,0.02
2014-5-28,84,68,53,64,55,39,99,68,27,0.00,40.00,21,9,26,0.00
2014-5-29,76,64,58,50,44,35,72,50,26,0.00,40.00,22,10,30,0.00
2014-5-30,74,63,53,47,41,32,63,46,32,0.00,40.00,18,13,27,0.00
2014-5-31,68,58,53,54,48,-100,82,70,55,0.00,40.00,14,9,27,0.04
2014-6-1,64,53,49,50,46,40,96,78,54,0.00,40.00,12,8,25,0.20
2014-6-2,75,69,60,50,44,41,65,42,30,0.00,40.00,12,7,26,0.01
2014-6-3,73,62,53,55,48,41,75,60,47,0.00,40.00,18,9,34,0.03
2014-6-4,68,60,54,57,46,41,81,62,45,0.00,40.00,15,8,36,0.10
2014-6-5,73,61,51,48,43,39,71,54,30,0.00,40.00,23,11,31,0.06
2014-6-6,53,46,44,42,40,35,90,79,63,0.00,40.00,17,11,25,0.00
2014-6-7,65,52,41,47,42,-100,98,72,48,0.00,40.00,13,8,20,0.00
2014-6-8,69,60,49,50,40,33,92,54,26,0.00,40.00,16,7,19,0.00
2014-6-9,80,68,54,45,37,33,47,34,21,0.00,40.00,20,13,29,0.00
2014-6-10,70,63,55,53,46,37,84,56,38,0.00,40.00,14,9,24,0.05
2014-6-11,62,54,47,51,46,39,100,76,52,0.00,40.00,20,10,31,0.34
2014-6-12,73,59,43,51,47,42,100,68,43,0.00,40.00,21,15,29,0.11
2014-6-13,73,63,51,55,46,34,87,57,32,0.00,40.00,26,13,35,0.00
2014-6-14,64,53,46,49,40,-100,83,65,43,0.00,40.00,13,7,32,0.13
2014-6-15,72,58,48,44,40,37,77,54,30,0.00,40.00,17,9,22,0.37
2014-6-16,70,58,50,51,47,41,88,68,44,0.00,40.00,15,8,28,0.40
2014-6-17,68,56,50,58,50,43,100,83,49,0.00,40.00,13,7,40,0.46
2014-6-18,63,53,43,51,41,28,100,67,29,0.00,40.00,22,10,32,0.52
2014-6-19,72,61,48,45,39,32,65,45,29,0.00,40.00,22,13,32,0.01
2014-6-20,81,68,57,51,43,39,71,42,26,0.00,40.00,15,9,36,0.01
2014-6-21,75,63,55,54,48,-100,83,61,38,0.00,40.00,16,7,29,0.17
2014-6-22,69,60,54,55,47,39,100,65,42,0.00,40.00,16,8,23,0.08
2014-6-23,75,62,54,54,50,43,100,68,32,0.00,40.00,10,7,14,0.03
2014-6-24,78,67,56,55,48,44,72,53,36,0.00,40.00,11,6,18,0.01
2014-6-25,82,69,58,55,51,47,82,56,33,0.00,40.00,16,7,23,0.00
2014-6-26,72,62,56,62,54,49,92,76,58,0.00,40.00,15,8,23,0.20
2014-6-27,68,62,57,56,53,48,92,74,55,0.00,40.00,12,7,19,0.17
2014-6-28,71,61,56,50,43,-100,77,55,30,0.00,40.00,25,11,44,0.00
2014-6-29,75,64,52,41,35,29,60,36,20,0.00,40.00,26,14,44,0.00
2014-6-30,71,62,52,43,38,30,52,41,30,0.00,40.00,21,15,35,0.00
2014-7-1,73,63,55,52,46,42,67,55,37,0.00,40.00,12,7,22,0.00
2014-7-2,81,69,52,52,45,42,68,45,27,0.00,40.00,15,9,22,0.00
2014-7-3,86,72,58,56,48,41,70,44,26,0.00,40.00,20,9,32,0.00
2014-7-4,93,79,66,54,47,37,52,35,14,0.00,40.00,15,8,31,0.00
2014-7-5,94,78,64,57,48,-100,63,39,19,0.00,40.00,15,10,26,0.00
2014-7-6,94,79,66,50,43,32,45,29,18,0.00,40.00,12,8,19,0.00
2014-7-7,78,71,63,55,48,40,69,45,31,0.00,40.00,23,12,34,0.03
2014-7-8,83,72,60,48,44,40,54,38,27,0.00,40.00,11,7,16,0.00
2014-7-9,89,75,60,53,49,42,59,42,26,0.00,40.00,13,7,20,0.00
2014-7-10,91,81,70,53,47,39,52,32,18,0.00,40.00,11,6,20,0.00
2014-7-11,80,73,65,60,52,46,81,50,36,0.00,40.00,20,11,31,0.00
2014-7-12,85,70,61,55,50,41,74,51,24,0.00,40.00,12,7,24,0.00
2014-7-13,88,76,62,51,44,40,53,34,21,0.00,40.00,15,9,22,0.00
2014-7-14,80,69,59,47,42,36,59,39,26,0.00,40.00,12,9,20,0.00
2014-7-15,71,63,55,58,46,35,80,54,35,0.00,40.00,17,8,26,0.07
2014-7-16,82,70,59,55,50,47,82,52,31,0.00,40.00,13,6,17,0.01
2014-7-17,91,76,61,56,47,36,66,39,19,0.00,40.00,24,10,33,0.00
2014-7-18,88,76,66,50,44,38,51,33,20,0.00,40.00,17,9,26,0.00
2014-7-19,93,76,63,47,40,33,48,30,13,0.00,40.00,14,9,27,0.00
2014-7-20,94,82,68,44,39,33,39,23,12,0.00,40.00,19,7,34,0.00
2014-7-21,84,71,63,56,51,41,66,51,25,0.00,40.00,24,10,34,0.00
2014-7-22,90,72,61,60,52,41,79,52,22,0.00,40.00,35,9,70,0.43
2014-7-23,89,75,63,64,58,52,83,58,34,0.00,40.00,14,8,18,0.43
2014-7-24,95,78,66,63,53,29,78,47,10,0.00,40.00,30,11,42,0.00
2014-7-25,87,71,59,44,32,24,49,25,12,0.00,40.00,21,9,26,0.00
2014-7-26,84,71,60,39,33,26,35,25,15,0.00,40.00,19,10,24,0.00
2014-7-27,86,73,58,45,39,34,53,32,18,0.00,40.00,14,9,23,0.00
2014-7-28,91,76,62,47,42,36,48,31,18,0.00,40.00,17,10,25,0.00
2014-7-29,88,77,65,53,46,42,52,35,23,0.00,40.00,16,10,25,0.00
2014-7-30,88,76,63,55,45,29,71,37,14,0.00,40.00,13,8,23,0.00
2014-7-31,91,77,67,45,36,32,31,24,13,0.00,40.00,12,9,28,0.00
2014-8-1,90,80,67,47,38,29,37,24,13,0.00,40.00,14,9,24,0.00
2014-8-2,90,76,65,51,42,35,48,30,19,0.00,40.00,13,8,30,0.00
2014-8-3,89,74,60,56,50,42,78,47,22,0.00,40.00,12,6,19,0.00
2014-8-4,80,68,61,58,53,43,81,61,34,0.00,40.00,22,10,32,0.09
2014-8-5,74,67,60,61,58,53,97,74,51,0.00,40.00,12,6,18,0.10
2014-8-6,86,71,58,60,52,41,85,59,21,0.00,40.00,9,6,15,0.00
2014-8-7,89,83,73,50,43,38,43,26,18,0.00,40.00,13,8,23,0.00
2014-8-8,90,78,65,50,42,32,50,31,13,0.00,40.00,17,10,26,0.00
2014-8-9,80,72,66,54,49,46,54,45,35,0.00,40.00,15,9,20,0.00
2014-8-10,90,75,62,53,48,38,65,41,21,0.00,40.00,15,8,22,0.00
2014-8-11,90,78,59,51,46,40,61,36,18,0.00,40.00,15,8,23,0.00
2014-8-12,96,82,67,50,43,38,43,27,14,0.00,40.00,19,8,37,0.04
2014-8-13,92,80,69,55,48,43,49,35,19,0.00,40.00,12,7,21,0.04
2014-8-14,77,70,66,61,56,49,83,60,37,0.00,40.00,14,8,21,0.02
2014-8-15,89,72,61,60,55,48,81,60,25,0.00,40.00,16,8,38,0.17
2014-8-16,82,69,59,59,41,45,92,42,30,0.00,40.00,17,8,22,0.17
2014-8-17,85,74,63,52,46,40,56,39,22,0.00,40.00,16,9,23,0.00
2014-8-18,86,74,62,53,48,42,63,41,24,0.00,40.00,13,8,19,0.00
2014-8-19,91,77,65,47,42,33,46,31,13,0.00,40.00,21,10,39,0.00
2014-8-20,83,72,60,54,44,40,79,40,25,0.00,40.00,11,8,27,0.04
2014-8-21,64,59,55,58,55,52,100,88,71,0.00,40.00,14,6,20,0.25
2014-8-22,63,57,54,59,56,54,100,96,83,0.00,40.00,15,8,23,0.40
2014-8-23,58,53,47,58,53,47,100,98,98,0.00,40.00,24,12,35,1.10
2014-8-24,54,48,44,47,44,39,100,86,65,0.00,40.00,19,14,28,1.17
2014-8-25,62,53,46,46,42,38,78,66,53,0.00,40.00,13,8,18,0.01
2014-8-26,78,63,50,52,47,42,88,61,29,0.00,40.00,13,7,16,0.00
2014-8-27,84,70,60,51,47,39,63,46,22,0.00,40.00,13,8,15,0.00
2014-8-28,86,73,63,54,46,41,63,42,21,0.00,40.00,16,10,30,0.00
2014-8-29,75,66,55,56,52,41,95,62,30,0.00,40.00,19,11,35,0.02
2014-8-30,65,61,58,56,50,47,78,66,55,0.00,40.00,15,9,23,0.00
2014-8-31,71,61,56,47,45,37,70,57,34,0.00,40.00,14,10,24,0.07